[[{"header":{"parameterUnit":"m.s-1","parameterCategory":2,"la1":30.2992,"la2":30.254,"lo1":-89.0895,"lo2":-89.0443,"dy":0.0025,"dx":0.0025,"nx":19,"ny":19,"refTime":"2026-05-03T09:00:00:Z","depth":"0","parameterNumber":2,"parameterNumberName":"U-component_of_CURRENTS"},"data":[0,0,0,0.1091,0.1093,0.1136,0.1136,0.1177,0.1177,0,0,0,0,0,0,0,0,0,0,0,0.1078,0.1078,0.1091,0.1093,0.1136,0.1136,0.1177,0.1177,0,0,0,0,0,0,0,0,0,0,0,0.1077,0.1078,0.1079,0.1093,0.1136,0.1136,0.1177,0.1146,0,0,0,0,0,0,0,0,0,0,0.1105,0.1093,0.1078,0.1079,0.1093,0.1136,0.1136,0.1144,0.1148,0.1155,0,0.117,0,0.1178,0.118,0.118,0,0,0,0.1085,0.109,0.1108,0.1079,0.1094,0.1136,0.1114,0.1146,0.115,0.116,0.1171,0.1173,0.1179,0.118,0.1181,0.1239,0.124,0,0,0.1083,0.1078,0.1105,0.111,0.1116,0.1113,0.1116,0.1149,0.1154,0.1171,0.1174,0.1179,0.1181,0.1181,0.1239,0.124,0,0,0,0.1081,0.1077,0.1093,0.1108,0.1119,0.1114,0.1118,0.1152,0.116,0.1174,0.118,0.1181,0.1182,0.1239,0.1239,0.1319,0,0,0,0.1079,0.1076,0.1092,0.1088,0.1119,0.1137,0.112,0.1157,0.1161,0.1179,0.1181,0.1182,0.1239,0.1239,0.1316,0.1414,0,0,0,0.1074,0.1075,0.1085,0.1088,0.1111,0.1137,0.1146,0.1158,0.1165,0.118,0.1182,0.1238,0.1239,0.1313,0.1407,0.165,0,0,0,0.106,0.1094,0.1085,0.1124,0.111,0.1153,0.1146,0.1175,0.119,0.1181,0.1239,0.1239,0.1312,0.1403,0.1643,0.1791,0.1837,0,0,0.1097,0.1098,0.1122,0.1116,0.1164,0.1146,0.1194,0.1209,0.1202,0.1225,0.1226,0.1317,0.1406,0.1649,0.1831,0.1877,0,0,0,0.1131,0.1148,0.1161,0.1186,0.1205,0.1236,0.1231,0.1245,0.1282,0.1217,0.1309,0.1364,0.1516,0.1587,0.1622,0.1658,0.1243,0.1243,0.1242,0.1164,0.1179,0.1218,0.1239,0.1266,0.1294,0.1346,0.1362,0.1318,0.1349,0.142,0.165,0.1718,0.1749,0.1779,0.1376,0.1376,0.1377,0.1377,0.1214,0.1231,0.1258,0.13,0.1331,0.1368,0.1447,0.1456,0.1628,0.1492,0.1635,0.1652,0.1794,0.1812,0.1382,0.1381,0.138,0.138,0.1379,0.1222,0.1232,0.1262,0.1315,0.1382,0.1425,0.1611,0.1667,0.175,0.1873,0.2065,0.2064,0.2104,0.1981,0.1982,0.1984,0.1985,0.1986,0.1987,0.1207,0.124,0.1273,0.1333,0.1383,0.1518,0.1734,0.1919,0.2186,0.2234,0.2236,0.2194,0.1838,0.1842,0.201,0.2006,0.2003,0.2001,0.1999,0.1205,0.1216,0.1274,0.1322,0.1474,0.1651,0.1877,0.2332,0.2572,0.2761,0.2704,0.2457,0.2495,0.2464,0.2484,0.281,0.281,0.281,0.281,0.1189,0.12,0.1291,0.1388,0.1551,0.1725,0.2118,0.2482,0.2883,0.3043,0.3054,0.2878,0.2844,0.2889,0.2848,0.287,0.3286,0.3287,0.3287,0.118,0.1216,0.1287,0.1399,0.158,0.1829,0.2134,0.2457,0.3032,0.3301,0.3087,0.3067,0.2785,0.2729,0.2762,0.2703,0.2722,0,0]},{"header":{"parameterUnit":"m.s-1","parameterCategory":2,"la1":30.2992,"la2":30.254,"lo1":-89.0895,"lo2":-89.0443,"dy":0.0025,"dx":0.0025,"nx":19,"ny":19,"refTime":"2026-05-03T09:00:00:Z","depth":"0","parameterNumber":3,"parameterNumberName":"V-component_of_CURRENTS"},"data":[0,0,0,-0.0245,-0.0246,-0.0265,-0.0265,-0.0246,-0.0246,0,0,0,0,0,0,0,0,0,0,0,-0.0232,-0.0233,-0.0245,-0.0246,-0.0265,-0.0265,-0.0246,-0.0246,0,0,0,0,0,0,0,0,0,0,0,-0.0232,-0.0233,-0.0233,-0.0246,-0.0265,-0.0265,-0.0246,-0.024,0,0,0,0,0,0,0,0,0,0,-0.0226,-0.0223,-0.0233,-0.0233,-0.0246,-0.0265,-0.0265,-0.024,-0.024,-0.0228,0,-0.0237,0,-0.0248,-0.0244,-0.0244,0,0,0,-0.0235,-0.0223,-0.0232,-0.0233,-0.0247,-0.0265,-0.0253,-0.024,-0.024,-0.0229,-0.0236,-0.0236,-0.0247,-0.0244,-0.0244,-0.0341,-0.0342,0,0,-0.0234,-0.0229,-0.0232,-0.0233,-0.0257,-0.0253,-0.0254,-0.0241,-0.024,-0.0236,-0.0236,-0.0247,-0.0244,-0.0244,-0.034,-0.0342,0,0,0,-0.0238,-0.0228,-0.0239,-0.0233,-0.0244,-0.0253,-0.0255,-0.024,-0.0245,-0.0236,-0.0247,-0.0244,-0.0244,-0.0339,-0.0341,-0.0326,0,0,0,-0.0237,-0.0232,-0.0238,-0.0235,-0.0245,-0.0249,-0.0255,-0.0246,-0.0245,-0.0247,-0.0244,-0.0244,-0.0337,-0.034,-0.0324,-0.0192,0,0,0,-0.0231,-0.0231,-0.0237,-0.0235,-0.0249,-0.0249,-0.0253,-0.0246,-0.0252,-0.0244,-0.0244,-0.0336,-0.0339,-0.0321,-0.0193,0.004,0,0,0,-0.0221,-0.024,-0.0236,-0.027,-0.0249,-0.0303,-0.0253,-0.0286,-0.0289,-0.0244,-0.0338,-0.034,-0.0321,-0.0194,0.0036,0.0329,0.0374,0,0,-0.0243,-0.0243,-0.0266,-0.0264,-0.0317,-0.0299,-0.0353,-0.0332,-0.0328,-0.0333,-0.0336,-0.0325,-0.0194,0.0039,0.0162,0.0215,0,0,0,-0.0273,-0.0286,-0.0304,-0.0332,-0.0364,-0.0358,-0.0382,-0.0382,-0.0389,-0.0345,-0.0387,-0.0303,-0.0155,0.0006,0.0044,-0.015,-0.0354,-0.0353,-0.0353,-0.0272,-0.0304,-0.0343,-0.0383,-0.0405,-0.0422,-0.0396,-0.0403,-0.0444,-0.0467,-0.0344,-0.0217,-0.0061,-0.0024,-0.0238,-0.0471,-0.0471,-0.0471,-0.0471,-0.0304,-0.0321,-0.0355,-0.0398,-0.0401,-0.0428,-0.04,-0.04,-0.0274,-0.04,-0.0258,-0.0055,0.0021,-0.0222,-0.0471,-0.0471,-0.0471,-0.0471,-0.0471,-0.0291,-0.0301,-0.0336,-0.0372,-0.0352,-0.0358,-0.0134,-0.0157,-0.0164,-0.0063,0.025,0.0253,0.0111,0.0034,0.0036,0.0037,0.0039,0.004,0.0041,-0.0247,-0.0287,-0.0271,-0.0311,-0.0257,-0.0107,0.0071,0.0254,0.0431,0.0399,0.0401,0.0122,-0.0057,0.0005,0.0064,0.006,0.0057,0.0055,0.0053,-0.0198,-0.0207,-0.0159,-0.0111,0.0069,0.045,0.0545,0.0999,0.1112,0.1266,0.0706,0.0674,0.0771,0.0738,0.0819,0.1089,0.1089,0.1089,0.1089,-0.0126,-0.0147,0.0026,0.0198,0.0472,0.0748,0.1425,0.1639,0.1451,0.1256,0.1007,0.0815,0.0782,0.0862,0.0827,0.0901,0.1184,0.1183,0.1183,-0.0051,-0.0008,0.0196,0.0355,0.0689,0.1206,0.188,0.2117,0.1616,0.1146,0.0672,0.0669,0.0323,0.0288,0.0351,0.0319,0.0418,0,0]}],[{"header":{"parameterUnit":"m.s-1","parameterCategory":2,"la1":30.2992,"la2":30.254,"lo1":-89.0895,"lo2":-89.0443,"dy":0.0025,"dx":0.0025,"nx":19,"ny":19,"refTime":"2026-05-03T09:00:00:Z","depth":"2","parameterNumber":2,"parameterNumberName":"U-component_of_CURRENTS"},"data":[0,0,0,0.1105,0.1106,0.1152,0.1152,0.1221,0.1222,0,0,0,0,0,0,0,0,0,0,0,0.1092,0.1092,0.1104,0.1106,0.1152,0.1152,0.1221,0.1222,0,0,0,0,0,0,0,0,0,0,0,0.1092,0.1092,0.1093,0.1106,0.1152,0.1152,0.1221,0.1183,0,0,0,0,0,0,0,0,0,0,0.1136,0.112,0.1092,0.1093,0.1106,0.1152,0.1153,0.1181,0.1185,0.1204,0,0.1219,0,0.1223,0.1227,0.1227,0,0,0,0.1102,0.1116,0.1134,0.1093,0.1107,0.1152,0.113,0.1183,0.1188,0.121,0.1219,0.1222,0.1224,0.1228,0.1228,0.1346,0.1346,0,0,0.1099,0.1095,0.113,0.1137,0.1129,0.1129,0.1132,0.1186,0.1193,0.122,0.1223,0.1225,0.1228,0.1229,0.1345,0.1346,0,0,0,0.1094,0.1093,0.1109,0.1135,0.1143,0.113,0.1134,0.119,0.1197,0.1224,0.1226,0.1229,0.123,0.1344,0.1345,0.1367,0,0,0,0.1093,0.109,0.1108,0.1104,0.1142,0.1165,0.1137,0.1194,0.12,0.1226,0.1229,0.123,0.1343,0.1345,0.1365,0.1461,0,0,0,0.1088,0.1089,0.1099,0.1104,0.1126,0.1164,0.1174,0.1195,0.1201,0.1227,0.123,0.1343,0.1345,0.1363,0.1454,0.1667,0,0,0,0.1075,0.1109,0.1099,0.1139,0.1126,0.1178,0.1173,0.1207,0.123,0.1229,0.1343,0.1345,0.1362,0.1451,0.166,0.1716,0.1751,0,0,0.1113,0.1114,0.1138,0.113,0.1187,0.1171,0.1227,0.1249,0.1265,0.1324,0.1326,0.1366,0.1454,0.1665,0.1813,0.1845,0,0,0,0.1147,0.1165,0.1179,0.1209,0.1235,0.1268,0.1277,0.1287,0.134,0.1288,0.1394,0.1452,0.1584,0.1603,0.1629,0.1353,0.1353,0.1353,0.1353,0.1184,0.1203,0.1243,0.1272,0.1304,0.1336,0.1381,0.1408,0.1379,0.1412,0.1486,0.1694,0.1707,0.1729,0.1461,0.1461,0.1461,0.1461,0.1461,0.1243,0.1256,0.1286,0.1326,0.1359,0.1403,0.1479,0.1485,0.1656,0.1544,0.167,0.1644,0.1759,0.1464,0.1463,0.1463,0.1463,0.1462,0.1462,0.1253,0.1257,0.1284,0.1337,0.1394,0.1442,0.1616,0.1672,0.1748,0.1857,0.1994,0.1993,0.1794,0.1948,0.195,0.1951,0.1952,0.1953,0.1954,0.1235,0.1263,0.129,0.1344,0.1387,0.1518,0.1727,0.1892,0.2095,0.2121,0.2122,0.1863,0.1847,0.1829,0.1974,0.1971,0.1968,0.1966,0.1965,0.1227,0.1227,0.1288,0.1328,0.1473,0.1648,0.1858,0.2226,0.2427,0.2556,0.2297,0.2282,0.2332,0.2308,0.2304,0.2566,0.2566,0.2566,0.2566,0.12,0.121,0.1299,0.1392,0.155,0.1719,0.2023,0.2168,0.2373,0.2385,0.2391,0.2181,0.2164,0.219,0.217,0.2156,0.238,0.2379,0.2378,0.1187,0.1225,0.1296,0.1403,0.1577,0.1825,0.1984,0.1946,0.2124,0.2354,0.2183,0.2587,0.2287,0.2257,0.2296,0.2263,0.2242,0,0]},{"header":{"parameterUnit":"m.s-1","parameterCategory":2,"la1":30.2992,"la2":30.254,"lo1":-89.0895,"lo2":-89.0443,"dy":0.0025,"dx":0.0025,"nx":19,"ny":19,"refTime":"2026-05-03T09:00:00:Z","depth":"2","parameterNumber":3,"parameterNumberName":"V-component_of_CURRENTS"},"data":[0,0,0,-0.0379,-0.0379,-0.0413,-0.0414,-0.0518,-0.0519,0,0,0,0,0,0,0,0,0,0,0,-0.0366,-0.0366,-0.0379,-0.0379,-0.0413,-0.0414,-0.0518,-0.0519,0,0,0,0,0,0,0,0,0,0,0,-0.0366,-0.0366,-0.0366,-0.038,-0.0413,-0.0414,-0.0518,-0.0477,0,0,0,0,0,0,0,0,0,0,-0.0436,-0.0411,-0.0366,-0.0366,-0.038,-0.0413,-0.0414,-0.0474,-0.0479,-0.052,0,-0.0524,0,-0.0527,-0.0528,-0.0528,0,0,0,-0.0379,-0.0407,-0.0421,-0.0366,-0.038,-0.0413,-0.0398,-0.0477,-0.0483,-0.0527,-0.0526,-0.0529,-0.0529,-0.0528,-0.0529,-0.0658,-0.0658,0,0,-0.0377,-0.037,-0.0417,-0.0425,-0.039,-0.0397,-0.0399,-0.048,-0.0485,-0.0526,-0.0532,-0.0531,-0.0529,-0.053,-0.0657,-0.0658,0,0,0,-0.0372,-0.0369,-0.038,-0.0421,-0.0424,-0.0398,-0.04,-0.0481,-0.0486,-0.0533,-0.0532,-0.053,-0.0532,-0.0657,-0.0658,-0.0596,0,0,0,-0.0371,-0.0366,-0.0379,-0.0374,-0.0422,-0.0444,-0.04,-0.048,-0.0489,-0.0531,-0.053,-0.0533,-0.0656,-0.0657,-0.0597,-0.0489,0,0,0,-0.0364,-0.0365,-0.037,-0.0374,-0.0389,-0.0442,-0.0451,-0.0482,-0.049,-0.0528,-0.0533,-0.0656,-0.0657,-0.0597,-0.0493,-0.0339,0,0,0,-0.0354,-0.0373,-0.0369,-0.0402,-0.0389,-0.0447,-0.045,-0.0495,-0.0529,-0.0531,-0.0656,-0.0658,-0.0597,-0.0496,-0.0344,-0.0315,-0.0291,0,0,-0.0375,-0.0375,-0.0398,-0.0397,-0.0449,-0.0442,-0.0493,-0.0531,-0.056,-0.0633,-0.0636,-0.0597,-0.0493,-0.034,-0.038,-0.0353,0,0,0,-0.0404,-0.0417,-0.0436,-0.0464,-0.0498,-0.0487,-0.0542,-0.0552,-0.0585,-0.0585,-0.0637,-0.0573,-0.0477,-0.0473,-0.0453,-0.0663,-0.0663,-0.0663,-0.0662,-0.0401,-0.0434,-0.0467,-0.0503,-0.0527,-0.0542,-0.052,-0.0543,-0.0616,-0.0617,-0.0557,-0.0435,-0.044,-0.0422,-0.0639,-0.0639,-0.0639,-0.0638,-0.0638,-0.0426,-0.0436,-0.0469,-0.051,-0.0504,-0.053,-0.0505,-0.0506,-0.0433,-0.054,-0.0452,-0.0452,-0.0395,-0.0634,-0.0635,-0.0636,-0.0636,-0.0636,-0.0637,-0.0412,-0.0415,-0.0451,-0.0476,-0.0451,-0.0452,-0.0273,-0.0284,-0.0318,-0.0243,-0.0186,-0.0187,-0.0292,-0.0194,-0.0193,-0.0192,-0.0191,-0.019,-0.019,-0.0362,-0.0398,-0.0381,-0.0411,-0.0361,-0.0233,-0.0094,0.0007,0.0027,-0.0049,-0.005,-0.0282,-0.0297,-0.0265,-0.0173,-0.0176,-0.0178,-0.018,-0.0181,-0.0308,-0.032,-0.0274,-0.0233,-0.008,0.012,0.023,0.0395,0.0456,0.0454,0.007,0.0058,0.0082,0.0062,0.0102,0.0286,0.0286,0.0286,0.0286,-0.0234,-0.0254,-0.011,0.0028,0.0226,0.0329,0.0647,0.0673,0.0533,0.0368,0.0364,0.0204,0.0184,0.0204,0.018,0.0218,0.0433,0.0433,0.0434,-0.0154,-0.0125,0.0039,0.0151,0.0379,0.0581,0.0777,0.0807,0.0566,0.0438,0.0375,0.0299,0.0042,0.0019,0.0024,-0.0003,0.0048,0,0]}],[{"header":{"parameterUnit":"m.s-1","parameterCategory":2,"la1":30.2992,"la2":30.254,"lo1":-89.0895,"lo2":-89.0443,"dy":0.0025,"dx":0.0025,"nx":19,"ny":19,"refTime":"2026-05-03T09:00:00:Z","depth":"4","parameterNumber":2,"parameterNumberName":"U-component_of_CURRENTS"},"data":[0,0,0,0.0727,0.0729,0.0827,0.0827,0.0908,0.0909,0,0,0,0,0,0,0,0,0,0,0,0.0698,0.0699,0.0727,0.073,0.0827,0.0827,0.0908,0.0909,0,0,0,0,0,0,0,0,0,0,0,0.0697,0.0698,0.07,0.073,0.0827,0.0827,0.0908,0.0844,0,0,0,0,0,0,0,0,0,0,0.0754,0.0741,0.0698,0.07,0.0731,0.0827,0.0827,0.0841,0.0848,0.0853,0,0.088,0,0.0896,0.0913,0.0914,0,0,0,0.0724,0.0736,0.0757,0.07,0.0732,0.0827,0.0782,0.0845,0.0852,0.0861,0.0881,0.0884,0.0898,0.0914,0.0914,0.1037,0.1038,0,0,0.0719,0.0718,0.0752,0.0762,0.0772,0.0779,0.0785,0.085,0.0866,0.0881,0.0886,0.0899,0.0914,0.0915,0.1036,0.1037,0,0,0,0.0707,0.0714,0.0734,0.0758,0.078,0.0781,0.0789,0.0864,0.087,0.0887,0.09,0.0915,0.0916,0.1035,0.1037,0.1223,0,0,0,0.0704,0.0707,0.0732,0.0732,0.078,0.0831,0.0801,0.0865,0.0873,0.09,0.0915,0.0916,0.1034,0.1036,0.1216,0.1155,0,0,0,0.069,0.0706,0.0721,0.0732,0.0776,0.083,0.0841,0.0867,0.0881,0.0914,0.0917,0.1034,0.1036,0.121,0.1148,0.1195,0,0,0,0.0679,0.0704,0.0721,0.0752,0.0775,0.0838,0.084,0.0912,0.0949,0.0915,0.1035,0.1036,0.1208,0.1144,0.1192,0.1015,0,0,0,0.0695,0.0706,0.072,0.0737,0.0783,0.0823,0.0893,0.0954,0.0975,0.1006,0.101,0.1219,0.1148,0.1195,0.1129,0,0,0,0,0.0713,0.0728,0.0747,0.0779,0.0825,0.0902,0.0956,0.1021,0.1152,0.1006,0.1205,0.115,0.1176,0.1062,0.1046,0.1045,0.1045,0.1045,0.1045,0.0715,0.0731,0.0758,0.08,0.0861,0.0965,0.1047,0.114,0.1187,0.1306,0.1301,0.1434,0.1328,0.1368,0.1369,0.137,0.1371,0.1371,0.1372,0.0708,0.0703,0.0762,0.0806,0.0895,0.0979,0.1156,0.1256,0.1407,0.1434,0.1457,0.1262,0.139,0.1386,0.1384,0.1382,0.138,0.1379,0.1378,0.0671,0.0669,0.0717,0.0783,0.0898,0.103,0.1171,0.1345,0.1485,0.1556,0.144,0.1498,0.1483,0.1637,0.1637,0.1637,0.1637,0.1637,0.1637,0.0598,0.0637,0.0681,0.0774,0.0847,0.0998,0.1229,0.1327,0.1493,0.1503,0.16,0.152,0.1511,0.1492,0.1638,0.1638,0.1638,0.1638,0.1638,0.0527,0.0558,0.0614,0.068,0.0839,0.0922,0.1145,0.1306,0.1398,0.1424,0.1477,0.1485,0.136,0.1353,0.1324,0.1425,0.1423,0.1421,0,0.0466,0.0484,0.0559,0.0648,0.0747,0.0891,0.0993,0.1132,0.1267,0.1229,0.1375,0.1427,0.1434,0.1283,0.1275,0.1235,0,0,0,0.0412,0.0448,0.0482,0.0589,0.0704,0.0861,0.1021,0.1059,0.1235,0.1291,0.1375,0.1387,0.1523,0.1639,0.1462,0.1451,0.1409,0,0]},{"header":{"parameterUnit":"m.s-1","parameterCategory":2,"la1":30.2992,"la2":30.254,"lo1":-89.0895,"lo2":-89.0443,"dy":0.0025,"dx":0.0025,"nx":19,"ny":19,"refTime":"2026-05-03T09:00:00:Z","depth":"4","parameterNumber":3,"parameterNumberName":"V-component_of_CURRENTS"},"data":[0,0,0,0.0072,0.0072,0.0077,0.0077,0.0113,0.0113,0,0,0,0,0,0,0,0,0,0,0,0.0073,0.0073,0.0072,0.0072,0.0077,0.0077,0.0113,0.0113,0,0,0,0,0,0,0,0,0,0,0,0.0073,0.0073,0.0074,0.0072,0.0077,0.0077,0.0113,0.0102,0,0,0,0,0,0,0,0,0,0,0.0093,0.0082,0.0073,0.0074,0.0072,0.0077,0.0077,0.0101,0.0102,0.0119,0,0.0123,0,0.0119,0.0116,0.0117,0,0,0,0.0072,0.0081,0.009,0.0074,0.0072,0.0077,0.0075,0.0101,0.0103,0.0122,0.0123,0.0124,0.012,0.0117,0.0117,0.0273,0.0274,0,0,0.0071,0.0067,0.0089,0.0091,0.0078,0.0075,0.0075,0.0102,0.0102,0.0123,0.0125,0.012,0.0117,0.0117,0.0272,0.0273,0,0,0,0.0071,0.0066,0.0074,0.009,0.0089,0.0075,0.0075,0.01,0.0105,0.0125,0.0121,0.0117,0.0118,0.027,0.0272,0.0322,0,0,0,0.0071,0.0067,0.0074,0.0071,0.0088,0.0088,0.0073,0.0104,0.0106,0.012,0.0117,0.0118,0.0269,0.0271,0.0317,0.0297,0,0,0,0.0072,0.0066,0.007,0.0071,0.0073,0.0088,0.0094,0.0104,0.0104,0.0117,0.0118,0.0268,0.0271,0.0313,0.0292,0.0206,0,0,0,0.0063,0.0115,0.007,0.0138,0.0074,0.0176,0.0093,0.0156,0.0181,0.0118,0.0269,0.0272,0.0312,0.0289,0.0205,0.0194,0,0,0,0.0137,0.0123,0.0172,0.0133,0.0249,0.0174,0.0284,0.0265,0.0233,0.0258,0.0261,0.0319,0.0292,0.0206,0.0388,0,0,0,0,0.0203,0.0238,0.0269,0.0314,0.0354,0.0365,0.0363,0.0344,0.0349,0.0259,0.0371,0.0353,0.0295,0.0292,0.0288,0.0287,0.0287,0.0287,0.0286,0.0287,0.0324,0.0417,0.0467,0.0515,0.0518,0.0508,0.0482,0.0467,0.048,0.0434,0.0457,0.0468,0.0503,0.0503,0.0503,0.0503,0.0504,0.0504,0.0413,0.0464,0.0506,0.0607,0.0616,0.0682,0.0643,0.0599,0.0531,0.054,0.0481,0.0401,0.051,0.0509,0.0508,0.0507,0.0507,0.0506,0.0506,0.0461,0.0488,0.055,0.0653,0.0712,0.0726,0.0681,0.0631,0.0552,0.0508,0.0423,0.0448,0.0388,0.0458,0.0458,0.0457,0.0457,0.0457,0.0456,0.0459,0.0527,0.0583,0.0686,0.0721,0.0732,0.0674,0.0597,0.051,0.0449,0.0486,0.0438,0.044,0.0384,0.045,0.0451,0.0452,0.0453,0.0453,0.0492,0.0495,0.057,0.0614,0.0686,0.069,0.0666,0.0525,0.0407,0.0316,0.0389,0.0394,0.0337,0.0339,0.0277,0.0313,0.0313,0.0313,0,0.0462,0.0488,0.0522,0.056,0.059,0.0644,0.054,0.0461,0.0351,0.0356,0.0357,0.0444,0.0447,0.0389,0.039,0.0323,0,0,0,0.044,0.0455,0.0444,0.0498,0.0539,0.0512,0.0503,0.0446,0.0415,0.0315,0.0313,0.0313,0.043,0.0432,0.0352,0.0354,0.0258,0,0]}]]